Location: Newark
(50.0306°N, 2.3272°E)
Time: 22:31:07
(UTC+00:00)

NUDT-PHONESAT - Visible Passes

Search period start: 23 January 2020 00:00
Search period end: 02 February 2020 00:00
Orbit: 485 x 505 km, 97.4° (Epoch: 23 January)

Date Brightness Start Highest point End Pass type
(mag) Time Alt. Az. Time Alt. Az. Time Alt. Az.
23 Jan ? 05:19:34 10° ENE 05:21:07 12° E 05:22:39 10° ESE visible
23 Jan ? 06:51:35 10° N 06:55:10 60° WNW 06:58:42 10° SSW visible
23 Jan ? 17:32:56 10° S 17:36:36 74° W 17:40:15 10° NNW visible
24 Jan ? 06:30:26 10° NNE 06:34:03 77° ESE 06:37:39 10° S visible
24 Jan ? 17:11:52 10° SSE 17:15:28 63° ENE 17:19:05 10° N visible
24 Jan ? 18:48:03 10° WSW 18:49:32 12° W 18:51:00 10° WNW visible
25 Jan ? 06:09:25 10° NNE 06:12:53 42° E 06:16:19 10° S visible
25 Jan ? 18:25:28 10° SW 18:28:12 20° W 18:30:57 10° NW visible
26 Jan ? 05:48:36 10° NE 05:51:38 25° E 05:54:40 10° SSE visible
26 Jan ? 18:03:38 10° SSW 18:06:56 32° W 18:10:16 10° NNW visible
27 Jan ? 05:28:09 10° NE 05:30:20 15° E 05:32:32 10° SE visible
27 Jan ? 17:42:09 10° S 17:45:44 57° W 17:49:20 10° NNW visible
28 Jan ? 06:39:33 10° NNE 06:43:10 84° WNW 06:46:47 10° SSW visible
28 Jan ? 17:20:57 10° SSE 17:24:35 81° ENE 17:28:14 10° NNW visible
29 Jan ? 06:18:27 10° NNE 06:22:01 54° E 06:25:33 10° S visible
29 Jan ? 18:35:05 10° SW 18:37:23 16° W 18:39:43 10° NW visible
30 Jan ? 05:57:32 10° NNE 06:00:48 31° E 06:04:02 10° SSE visible
30 Jan ? 18:12:59 10° SSW 18:16:05 26° W 18:19:12 10° NW visible
31 Jan ? 05:36:52 10° NE 05:39:31 19° E 05:42:08 10° SE visible
31 Jan ? 17:51:21 10° S 17:54:50 44° W 17:58:21 10° NNW visible
01 Feb ? 05:16:56 10° ENE 05:18:09 11° E 05:19:23 10° ESE visible
01 Feb ? 06:48:38 10° N 06:52:14 65° WNW 06:55:49 10° SSW visible
01 Feb ? 17:30:02 10° S 17:33:39 80° WSW 17:37:17 10° NNW visible
